CDT,Max TemperatureF,Mean TemperatureF,Min TemperatureF,Max Dew PointF,MeanDew PointF,Min DewpointF,Max Humidity, Mean Humidity, Min Humidity, Max Sea Level PressureIn, Mean Sea Level PressureIn, Min Sea Level PressureIn, Max VisibilityMiles, Mean VisibilityMiles, Min VisibilityMiles, Max Wind SpeedMPH, Mean Wind SpeedMPH, Max Gust SpeedMPH,PrecipitationIn, CloudCover, Events, WindDirDegrees
2014-8-1,84,70,57,61,54,46,94,68,27,30.12,30.07,30.04,10,10,10,20,3,26,0.00,1,Thunderstorm,238
2014-8-2,84,70,55,64,57,52,94,75,33,30.17,30.12,30.09,10,9,3,6,2,,0.00,2,,229
2014-8-3,87,74,62,64,60,54,94,69,31,30.15,30.11,30.06,10,8,0,14,2,20,0.00,2,Fog,267
2014-8-4,86,74,62,64,62,57,94,82,37,30.11,30.07,30.03,10,8,1,13,2,18,0.03,3,Rain-Thunderstorm,165
2014-8-5,80,71,62,66,63,61,94,82,57,30.08,30.05,30.02,10,7,0,10,3,,0.00,5,Fog,50
2014-8-6,80,70,59,61,56,45,94,74,28,30.09,30.07,30.05,10,8,1,8,1,,0.00,0,,64
2014-8-7,82,70,57,55,54,48,88,73,30,30.10,30.07,30.04,10,10,10,13,3,18,0.00,0,,77
2014-8-8,82,70,59,61,55,46,88,68,28,30.10,30.08,30.06,10,10,10,15,6,17,0.00,1,,79
2014-8-9,82,72,62,61,57,54,88,72,39,30.12,30.09,30.07,10,10,10,15,6,17,0.00,0,,72
2014-8-10,84,72,60,63,58,54,88,73,37,30.08,30.04,29.98,10,10,10,13,4,17,0.00,4,,61
2014-8-11,82,73,64,64,61,57,94,75,42,29.99,29.91,29.80,10,9,4,17,2,16,0.00,3,,328
2014-8-12,75,66,57,59,53,48,83,67,38,29.99,29.91,29.82,10,10,10,17,11,37,0.00,5,,323
2014-8-13,82,68,53,59,53,50,88,71,37,30.05,30.00,29.98,10,10,10,16,3,,0.00,2,,313
2014-8-14,73,63,53,57,50,43,94,72,33,30.14,30.08,30.05,10,10,10,9,3,,0.00,0,,52
2014-8-15,80,64,48,57,50,45,93,71,37,30.09,30.03,29.95,10,10,10,10,2,,0.00,0,,220
2014-8-16,84,72,59,66,61,55,94,78,51,29.95,29.91,29.87,10,9,4,12,4,,0.00,2,,218
2014-8-17,77,70,60,64,62,59,94,84,61,30.01,29.96,29.93,10,9,3,12,3,,0.00,4,,78
2014-8-18,86,72,59,68,61,57,94,81,45,29.96,29.87,29.76,10,6,0,15,4,21,0.00,5,Fog,156
2014-8-19,86,76,66,72,65,61,94,78,43,29.78,29.72,29.69,10,9,3,21,9,34,0.22,4,Rain,229
2014-8-20,87,74,62,68,64,61,94,77,43,29.94,29.86,29.79,10,10,6,12,2,20,0.00,2,,244
2014-8-21,78,73,68,73,69,66,94,92,83,29.98,29.93,29.89,10,8,2,12,2,,0.18,5,Rain-Thunderstorm,148
2014-8-22,87,79,71,75,72,70,94,87,58,29.98,29.93,29.88,10,6,1,6,1,,0.00,5,Rain,182
2014-8-23,80,74,69,75,71,68,94,92,83,30.01,29.97,29.92,10,5,0,6,3,,0.00,4,Rain,106
2014-8-24,87,78,69,75,70,68,94,86,62,30.00,29.98,29.95,10,6,2,15,4,,0.00,6,,123
2014-8-25,80,74,68,77,71,64,94,90,78,30.08,29.99,29.95,10,8,1,23,6,32,0.00,4,Rain-Thunderstorm,164
2014-8-26,77,70,64,68,64,59,94,84,54,30.18,30.07,30.01,10,10,2,16,1,23,0.00,4,Rain-Thunderstorm,336
2014-8-27,78,70,62,63,59,54,94,74,44,30.17,30.14,30.09,10,10,10,8,2,,0.00,2,Rain,48
2014-8-28,78,68,59,61,58,55,94,80,47,30.15,30.10,30.01,10,9,5,12,3,,0.00,2,,113
2014-8-29,86,75,64,72,66,61,94,82,55,30.01,29.91,29.83,10,8,2,17,5,25,0.00,2,Rain,157
2014-8-30,82,75,68,70,67,64,94,83,54,29.90,29.83,29.79,10,10,4,14,9,20,0.00,5,Rain,209
2014-8-31,86,73,60,70,64,59,94,80,45,29.93,29.89,29.81,10,7,0,14,3,,0.00,1,Fog,186